Voltar ao catálogo

ARIANE 42P DEB

AtivoLEO
NORAD 44508·DEBRIS·🇫🇷 France

Lançado Aug 10, 1992 de Guiana Space Centre

Loading…

Próximas Passagens (próximas 24 horas)

TLE

AtualizadoSource: Space-Track

Época: Sep 13, 2026, 19:44 UTC

1 44508U 92052F   26256.82222994  .00001253  00000-0  46798-2 0  9995
2 44508  66.0215 195.4335 0383409 242.4203 113.7379 12.73460053114454

Acompanhe ARIANE 42P DEB em tempo real com AllMySat

Download on the App Store